NK0V Weather Reports


Display with metric or nautical units.
time (UTC)temp
F
wind
direction
speed
MPH
gust
MPH
rain 1hr
in
rain 24hr
in
rain mn
in
humidity
%
barometer
mb
20260901164608 77 73 1.0 7.0 0.00 0.00 0.00 56 1015.9
20260901164057 77 41 3.0 7.0 0.00 0.00 0.00 56 1015.1
20260901163558 77 38 2.0 7.0 0.00 0.00 0.00 58 1015.1
20260901163105 77 30 1.0 9.0 0.00 0.00 0.00 59 1015.5
20260901162554 77 19 2.0 9.0 0.00 0.00 0.00 57 1015.6
20260901162058 77 23 3.0 9.0 0.00 0.00 0.00 57 1015.5
20260901161602 77 34 4.0 9.0 0.00 0.00 0.00 57 1015.7
20260901161059 77 28 3.0 9.0 0.00 0.00 0.00 58 1015.9
20260901160559 76 350 2.0 5.0 0.00 0.00 0.00 58 1016.1
20260901160105 76 360 1.0 5.0 0.00 0.00 0.00 60 1016.2
20260901155558 76 0 2.0 5.0 0.00 0.00 0.00 58 1016.3
20260901155100 76 27 2.0 5.0 0.00 0.00 0.00 57 1016.4
20260901154618 76 23 1.0 4.0 0.00 0.00 0.00 59 1016.4
20260901154058 76 31 1.0 3.0 0.00 0.00 0.00 58 1016.4
20260901153557 76 9 1.0 3.0 0.00 0.00 0.00 59 1016.4
20260901153113 76 35 1.0 5.0 0.00 0.00 0.00 58 1016.4
20260901152557 76 30 2.0 5.0 0.00 0.00 0.00 57 1016.4
20260901152058 76 44 0.0 3.0 0.00 0.00 0.00 61 1016.3
20260901151602 76 0 1.0 4.0 0.00 0.00 0.00 59 1016.2
20260901151059 75 5 1.0 4.0 0.00 0.00 0.00 61 1016.1
20260901150600 75 30 1.0 3.0 0.00 0.00 0.00 61 1016.0
20260901150111 74 17 0.0 4.0 0.00 0.00 0.00 67 1016.1
20260901145558 73 350 1.0 4.0 0.00 0.00 0.00 68 1016.0
20260901145058 73 36 1.0 3.0 0.00 0.00 0.00 69 1016.1
20260901144603 72 0 0.0 3.0 0.00 0.00 0.00 72 1016.1
20260901144058 71 0 1.0 3.0 0.00 0.00 0.00 72 1016.2
20260901143558 71 42 0.0 4.0 0.00 0.00 0.00 72 1016.2
20260901143124 70 0 2.0 4.0 0.00 0.00 0.00 72 1016.1
20260901142558 70 32 1.0 3.0 0.00 0.00 0.00 75 1016.1
20260901142058 69 14 0.0 4.0 0.00 0.00 0.00 74 1016.1
20260901141618 68 0 0.0 4.0 0.00 0.00 0.00 74 1016.1
20260901141059 67 18 2.0 4.0 0.00 0.00 0.00 74 1016.0
20260901140557 67 13 2.0 4.0 0.00 0.00 0.00 75 1015.9
20260901140110 66 342 1.0 3.0 0.00 0.00 0.00 76 1016.0
20260901135559 65 25 1.0 3.0 0.00 0.00 0.00 78 1016.2
20260901135058 65 0 0.0 3.0 0.00 0.00 0.00 81 1016.3
20260901134605 65 0 1.0 3.0 0.00 0.00 0.00 81 1016.2
20260901134059 65 0 0.0 2.0 0.00 0.00 0.00 82 1016.3
20260901133558 64 0 0.0 2.0 0.00 0.00 0.00 82 1016.2
20260901133113 64 19 0.0 3.0 0.00 0.00 0.00 82 1016.1
20260901132559 64 0 0.0 3.0 0.00 0.00 0.00 82 1016.2
20260901132101 64 0 1.0 3.0 0.00 0.00 0.00 81 1016.2
20260901131605 63 19 1.0 3.0 0.00 0.00 0.00 82 1016.2
20260901131101 63 19 0.0 1.0 0.00 0.00 0.00 83 1016.4
20260901130559 63 19 0.0 1.0 0.00 0.00 0.00 82 1016.5
20260901130100 63 0 0.0 1.0 0.00 0.00 0.00 82 1016.4
20260901125555 62 0 0.0 1.0 0.00 0.00 0.00 83 1016.4
20260901125055 62 0 0.0 1.0 0.00 0.00 0.00 83 1016.3
20260901124609 62 0 0.0 2.0 0.00 0.00 0.00 83 1016.3
20260901124058 62 0 0.0 3.0 0.00 0.00 0.00 83 1016.3
20260901123601 62 17 1.0 3.0 0.00 0.00 0.00 83 1016.3
20260901123112 61 24 1.0 3.0 0.00 0.00 0.00 83 1016.2
20260901122559 61 0 0.0 1.0 0.00 0.00 0.00 83 1016.2
20260901122055 61 0 0.0 2.0 0.00 0.00 0.00 83 1016.1
20260901121606 61 0 0.0 3.0 0.00 0.00 0.00 83 1016.0
20260901121100 61 25 1.0 3.0 0.00 0.00 0.00 83 1015.8
20260901120601 61 32 0.0 2.0 0.00 0.00 0.00 83 1015.7
20260901120116 61 0 0.0 1.0 0.00 0.00 0.00 84 1015.8
20260901115601 61 0 0.0 1.0 0.00 0.00 0.00 84 1015.9
20260901115059 61 0 0.0 1.0 0.00 0.00 0.00 84 1016.0
20260901114601 61 0 0.0 1.0 0.00 0.00 0.00 84 1016.0
20260901114058 61 0 0.0 2.0 0.00 0.00 0.00 84 1015.9
20260901113555 61 0 0.0 2.0 0.00 0.00 0.00 84 1015.8
20260901113115 61 0 0.0 1.0 0.00 0.00 0.00 84 1015.7
20260901112555 61 0 0.0 1.0 0.00 0.00 0.00 84 1015.7
20260901112059 61 0 0.0 1.0 0.00 0.00 0.00 84 1015.6
20260901111601 61 0 0.0 1.0 0.00 0.00 0.00 84 1015.7
20260901111057 61 0 0.0 1.0 0.00 0.00 0.00 84 1015.6
20260901110557 61 0 0.0 1.0 0.00 0.00 0.00 84 1015.7
20260901110110 61 0 0.0 2.0 0.00 0.00 0.00 83 1015.8
20260901105558 61 0 0.0 2.0 0.00 0.00 0.00 83 1015.8
20260901105057 61 0 0.0 2.0 0.00 0.00 0.00 82 1015.8
20260901104605 61 0 0.0 1.0 0.00 0.00 0.00 82 1015.7
20260901104059 61 51 0.0 2.0 0.00 0.00 0.00 82 1015.8
20260901103558 62 0 0.0 2.0 0.00 0.00 0.00 81 1015.8
20260901103104 62 0 0.0 2.0 0.00 0.00 0.00 81 1015.6
20260901102558 62 137 0.0 2.0 0.00 0.00 0.00 82 1015.5
20260901102056 62 0 0.0 2.0 0.00 0.00 0.00 82 1015.2
20260901101604 62 0 0.0 1.0 0.00 0.00 0.00 82 1015.2
20260901101058 62 0 0.0 1.0 0.00 0.00 0.00 82 1015.1
20260901100558 62 0 0.0 0.0 0.00 0.00 0.00 82 1015.0
20260901100105 62 0 0.0 0.0 0.00 0.00 0.00 82 1015.0
20260901095557 62 0 0.0 1.0 0.00 0.00 0.00 82 1014.8
20260901095055 62 0 0.0 1.0 0.00 0.00 0.00 82 1014.7
20260901094601 62 0 0.0 1.0 0.00 0.00 0.00 81 1014.7
20260901094059 62 0 0.0 0.0 0.00 0.00 0.00 82 1014.6
20260901093558 62 0 0.0 0.0 0.00 0.00 0.00 81 1014.6
20260901093103 62 0 0.0 1.0 0.00 0.00 0.00 81 1014.5
20260901092555 63 0 0.0 1.0 0.00 0.00 0.00 80 1014.7
20260901092055 63 0 0.0 3.0 0.00 0.00 0.00 80 1014.7
20260901091605 63 0 0.0 3.0 0.00 0.00 0.00 80 1014.6
20260901091054 63 84 0.0 3.0 0.00 0.00 0.00 81 1014.7
20260901090554 63 86 0.0 1.0 0.00 0.00 0.00 81 1014.8
20260901090101 63 0 0.0 2.0 0.00 0.00 0.00 80 1014.6
20260901085556 63 0 0.0 2.0 0.00 0.00 0.00 80 1014.6
20260901085058 63 0 0.0 2.0 0.00 0.00 0.00 80 1014.5
20260901084604 63 0 0.0 0.0 0.00 0.00 0.00 80 1014.5
20260901084058 63 0 0.0 1.0 0.00 0.00 0.00 80 1014.7
20260901083558 63 0 0.0 1.0 0.00 0.00 0.00 80 1014.7
20260901083109 63 0 0.0 1.0 0.00 0.00 0.00 80 1014.7
20260901082557 63 0 0.0 1.0 0.00 0.00 0.00 80 1014.6
20260901082059 63 0 0.0 2.0 0.00 0.00 0.00 81 1014.7
20260901081602 63 0 0.0 2.0 0.00 0.00 0.00 81 1014.7
20260901081058 63 38 1.0 2.0 0.00 0.00 0.00 81 1014.8
20260901080557 63 0 0.0 1.0 0.00 0.00 0.00 81 1014.8
20260901080059 63 105 0.0 1.0 0.00 0.00 0.00 80 1014.9
20260901075558 64 0 0.0 1.0 0.00 0.00 0.00 80 1015.0
20260901075059 64 0 0.0 1.0 0.00 0.00 0.00 79 1015.0
20260901074602 64 105 0.0 1.0 0.00 0.00 0.00 79 1015.1
20260901074057 64 0 0.0 2.0 0.00 0.00 0.00 80 1015.0
20260901073558 64 0 0.0 2.0 0.00 0.00 0.00 79 1015.0
20260901073056 65 105 0.0 2.0 0.00 0.00 0.00 78 1015.1
20260901072557 65 105 0.0 2.0 0.00 0.00 0.00 79 1015.0
20260901072100 65 0 1.0 2.0 0.00 0.00 0.00 79 1015.1
20260901071602 65 0 0.0 1.0 0.00 0.00 0.00 79 1015.1
20260901071056 65 0 0.0 1.0 0.00 0.00 0.00 78 1015.1
20260901070557 65 0 0.0 1.0 0.00 0.00 0.00 78 1015.1
20260901070104 65 0 0.0 1.0 0.00 0.00 0.00 78 1015.3
20260901065558 66 0 0.0 1.0 0.00 0.00 0.00 79 1015.3
20260901065056 66 0 0.0 1.0 0.00 0.00 0.00 78 1015.4
20260901064602 66 0 0.0 1.0 0.00 0.00 0.00 78 1015.3
20260901064056 66 0 0.0 0.0 0.00 0.00 0.00 78 1015.3
20260901063556 66 0 0.0 2.0 0.00 0.00 0.00 79 1015.3
20260901063114 66 0 0.0 2.0 0.00 0.00 0.00 79 1015.3
20260901062556 66 56 0.0 2.0 0.00 0.00 0.00 79 1015.4
20260901062056 66 0 0.0 2.0 0.00 0.00 0.00 79 1015.5
20260901061612 66 0 0.0 1.0 0.00 0.00 0.00 78 1015.4
20260901061058 66 0 0.0 2.0 0.00 0.00 0.00 78 1015.4
20260901060557 66 0 0.0 2.0 0.00 0.00 0.00 78 1015.6
20260901060059 66 55 0.0 2.0 0.00 0.00 0.00 78 1015.6
20260901055557 66 0 0.0 1.0 0.00 0.00 0.00 78 1015.5
20260901055056 66 0 0.0 1.0 0.00 0.00 0.00 78 1015.5
20260901054604 66 0 0.0 1.0 0.00 0.00 0.00 77 1015.5
20260901054057 67 55 0.0 1.0 0.00 0.00 0.00 77 1015.4
20260901053557 67 0 0.0 2.0 0.00 0.00 0.00 77 1015.5
20260901053101 67 0 0.0 2.0 0.00 0.00 0.00 77 1015.5
20260901052556 67 55 1.0 2.0 0.00 0.00 0.00 77 1015.5
20260901052056 67 0 0.0 0.0 0.00 0.00 0.00 77 1015.4
20260901051616 67 0 0.0 0.0 0.00 0.00 0.00 77 1015.3
20260901051056 67 0 0.0 0.0 0.00 0.00 0.00 76 1015.4
20260901050558 67 0 0.0 0.0 0.00 0.00 0.00 75 1015.5
20260901050109 67 0 0.0 0.0 0.00 0.00 0.00 75 1015.5
20260901045556 68 0 0.0 1.0 0.00 0.00 0.00 75 1015.4
20260901045056 68 0 0.0 1.0 0.00 0.00 0.00 75 1015.3
20260901044604 68 0 0.0 1.0 0.00 0.00 0.00 74 1015.4
20260901044057 68 0 0.0 0.0 0.00 0.00 0.00 74 1015.4
20260901043558 68 0 0.0 0.0 0.00 0.00 0.00 75 1015.3
20260901043131 68 0 0.0 0.0 0.00 0.00 0.00 74 1015.4
20260901042557 68 0 0.0 0.0 0.00 0.00 0.00 74 1015.3
20260901042056 68 0 0.0 0.0 0.00 0.00 0.00 73 1015.2
20260901041620 68 0 0.0 0.0 0.00 0.00 0.00 73 1015.2
20260901041056 69 0 0.0 0.0 0.00 0.00 0.00 73 1015.3
20260901040556 69 0 0.0 1.0 0.00 0.00 0.00 73 1015.3
20260901040111 69 0 0.0 2.0 0.00 0.00 0.00 73 1015.2
20260901035556 69 0 0.0 2.0 0.00 0.00 0.00 73 1015.2
20260901035055 69 55 1.0 2.0 0.00 0.00 0.00 72 1015.1
20260901034610 69 55 0.0 1.0 0.00 0.00 0.00 72 1015.2
20260901034056 69 0 0.0 1.0 0.00 0.00 0.00 72 1015.1
20260901033557 69 0 0.0 2.0 0.00 0.00 0.00 72 1015.1
20260901033114 69 0 0.0 2.0 0.00 0.00 0.00 71 1015.1
20260901032558 69 0 0.0 2.0 0.00 0.00 0.00 71 1015.1
20260901032058 70 0 0.0 1.0 0.00 0.00 0.00 71 1015.1
20260901031559 70 0 0.0 0.0 0.00 0.00 0.00 71 1015.0
20260901031056 70 0 0.0 0.0 0.00 0.00 0.00 71 1015.0
20260901030556 71 0 0.0 3.0 0.00 0.00 0.00 71 1014.9
20260901025556 71 0 0.0 3.0 0.00 0.00 0.00 71 1014.8
20260901025056 71 0 0.0 2.0 0.00 0.00 0.00 70 1014.7
20260901024610 72 0 0.0 0.0 0.00 0.00 0.00 70 1014.8
20260901024100 72 0 0.0 0.0 0.00 0.00 0.00 70 1014.7
20260901023555 72 0 0.0 0.0 0.00 0.00 0.00 69 1014.7
20260901023101 73 0 0.0 0.0 0.00 0.00 0.00 70 1014.7
20260901022557 73 0 0.0 0.0 0.00 0.00 0.00 69 1014.6
20260901022058 73 0 0.0 0.0 0.00 0.00 0.00 68 1014.7
20260901021559 73 0 0.0 0.0 0.00 0.00 0.00 67 1014.6
20260901021057 73 0 0.0 0.0 0.00 0.00 0.00 67 1014.6
20260901020559 74 0 0.0 0.0 0.00 0.00 0.00 65 1014.5
20260901015559 74 0 0.0 0.0 0.00 0.00 0.00 65 1014.5
20260901015058 74 0 0.0 0.0 0.00 0.00 0.00 65 1014.3
20260901014607 75 0 0.0 0.0 0.00 0.00 0.00 64 1014.3
20260901014059 75 0 0.0 1.0 0.00 0.00 0.00 64 1014.2
20260901013558 75 0 0.0 1.0 0.00 0.00 0.00 64 1014.1
20260901013100 76 0 0.0 1.0 0.00 0.00 0.00 63 1014.2
20260901012557 76 344 0.0 1.0 0.00 0.00 0.00 63 1014.3
20260901012058 76 0 0.0 1.0 0.00 0.00 0.00 63 1014.3
20260901011559 77 0 0.0 1.0 0.00 0.00 0.00 63 1014.1
20260901011058 77 0 0.0 1.0 0.00 0.00 0.00 63 1014.1
20260901010558 77 0 0.0 1.0 0.00 0.00 0.00 63 1014.1
20260901010100 78 344 0.0 2.0 0.00 0.00 0.00 62 1014.2
20260901005558 78 344 0.0 2.0 0.00 0.00 0.00 61 1014.1
20260901005057 78 0 0.0 2.0 0.00 0.00 0.00 57 1014.2
20260901004617 78 0 0.0 2.0 0.00 0.00 0.00 55 1014.1
20260901004057 79 0 0.0 2.0 0.00 0.00 0.00 54 1014.2
20260901003559 79 0 0.0 2.0 0.00 0.00 0.00 54 1014.1
20260901003059 79 0 0.0 2.0 0.00 0.00 0.00 55 1014.1
20260901002559 79 0 0.0 2.0 0.00 0.00 0.00 55 1014.1
20260901002058 79 329 0.0 2.0 0.00 0.00 0.00 55 1014.0
20260901001605 79 355 0.0 2.0 0.00 0.00 0.00 55 1014.0
20260901001057 80 324 0.0 2.0 0.00 0.00 0.00 55 1014.0
20260901000601 80 318 0.0 2.0 0.00 0.00 0.00 54 1014.0
20260901000110 80 309 0.0 2.0 0.00 0.00 0.00 54 1014.0
20260831235558 80 355 0.0 2.0 0.00 0.00 0.00 54 1014.0
20260831235057 80 0 0.0 2.0 0.00 0.00 0.00 53 1014.0
20260831234558 80 0 0.0 1.0 0.00 0.00 0.00 52 1014.0
20260831234058 81 0 0.0 2.0 0.00 0.00 0.00 51 1014.1
20260831233559 81 0 0.0 2.0 0.00 0.00 0.00 50 1014.2
20260831233059 81 320 0.0 2.0 0.00 0.00 0.00 49 1014.2
20260831232558 81 0 0.0 3.0 0.00 0.00 0.00 48 1014.3
20260831232058 81 0 0.0 3.0 0.00 0.00 0.00 47 1014.3
20260831231610 82 32 0.0 3.0 0.00 0.00 0.00 46 1014.2
20260831231058 82 316 1.0 5.0 0.00 0.00 0.00 46 1014.2
20260831230556 82 0 1.0 5.0 0.00 0.00 0.00 46 1014.3
20260831230059 82 318 1.0 3.0 0.00 0.00 0.00 45 1014.3
20260831225558 82 0 0.0 3.0 0.00 0.00 0.00 47 1014.3
20260831225057 82 261 0.0 4.0 0.00 0.00 0.00 49 1014.2
20260831224605 82 278 0.0 4.0 0.00 0.00 0.00 48 1014.3
20260831224058 82 0 0.0 4.0 0.00 0.00 0.00 48 1014.4
20260831223558 82 267 1.0 3.0 0.00 0.00 0.00 48 1014.2
20260831223107 82 329 0.0 4.0 0.00 0.00 0.00 49 1014.3
20260831222600 82 297 1.0 4.0 0.00 0.00 0.00 50 1014.3
20260831222057 82 323 1.0 5.0 0.00 0.00 0.00 49 1014.3
20260831221610 82 331 0.0 5.0 0.00 0.00 0.00 50 1014.3
20260831221101 82 324 0.0 4.0 0.00 0.00 0.00 49 1014.3
20260831220556 82 325 1.0 4.0 0.00 0.00 0.00 48 1014.3
20260831220104 82 302 1.0 4.0 0.00 0.00 0.00 49 1014.3
20260831215558 83 321 1.0 4.0 0.00 0.00 0.00 49 1014.3
20260831215055 83 351 0.0 4.0 0.00 0.00 0.00 50 1014.3
20260831214600 83 44 1.0 4.0 0.00 0.00 0.00 50 1014.4
20260831214054 83 269 0.0 4.0 0.00 0.00 0.00 50 1014.3
20260831213557 83 0 0.0 4.0 0.00 0.00 0.00 51 1014.3
20260831213059 83 0 0.0 4.0 0.00 0.00 0.00 52 1014.3
20260831212559 83 272 0.0 5.0 0.00 0.00 0.00 50 1014.4
20260831212102 83 286 1.0 5.0 0.00 0.00 0.00 51 1014.4
20260831211559 83 0 1.0 4.0 0.00 0.00 0.00 52 1014.5
20260831211058 84 270 0.0 4.0 0.00 0.00 0.00 51 1014.6
20260831210554 84 0 1.0 3.0 0.00 0.00 0.00 51 1014.5
20260831205601 84 215 0.0 4.0 0.00 0.00 0.00 51 1014.6
20260831205057 84 0 0.0 5.0 0.00 0.00 0.00 50 1014.6
20260831204558 84 284 2.0 5.0 0.00 0.00 0.00 47 1014.6
20260831204057 84 0 1.0 4.0 0.00 0.00 0.00 44 1014.5
20260831203557 84 294 0.0 3.0 0.00 0.00 0.00 48 1014.5
20260831203104 84 0 0.0 6.0 0.00 0.00 0.00 46 1014.4
20260831202558 84 273 0.0 6.0 0.00 0.00 0.00 45 1014.4
20260831202058 85 264 2.0 6.0 0.00 0.00 0.00 46 1014.3
20260831201604 84 266 0.0 4.0 0.00 0.00 0.00 48 1014.5
20260831201058 84 255 1.0 4.0 0.00 0.00 0.00 49 1014.4
20260831200558 84 267 1.0 4.0 0.00 0.00 0.00 50 1014.4
20260831195558 85 225 0.0 4.0 0.00 0.00 0.00 53 1014.4
20260831195057 85 248 1.0 4.0 0.00 0.00 0.00 53 1014.4
20260831194639 84 251 1.0 7.0 0.00 0.00 0.00 55 1014.4
20260831194057 85 249 2.0 7.0 0.00 0.00 0.00 53 1014.4
20260831193558 85 0 0.0 4.0 0.00 0.00 0.00 54 1014.4
20260831193058 85 360 1.0 4.0 0.00 0.00 0.00 51 1014.4
20260831192558 85 272 1.0 4.0 0.00 0.00 0.00 51 1014.4
20260831192058 85 0 1.0 6.0 0.00 0.00 0.00 53 1014.4
20260831191606 86 263 1.0 6.0 0.00 0.00 0.00 53 1014.4
20260831191058 86 267 0.0 6.0 0.00 0.00 0.00 54 1014.4
20260831190558 86 0 1.0 4.0 0.00 0.00 0.00 54 1014.4
20260831190123 85 0 0.0 3.0 0.00 0.00 0.00 53 1014.4
20260831185558 85 257 0.0 6.0 0.00 0.00 0.00 53 1014.3
20260831185057 85 0 1.0 6.0 0.00 0.00 0.00 47 1014.3
20260831184611 85 0 2.0 6.0 0.00 0.00 0.00 46 1014.3
20260831184057 85 272 0.0 4.0 0.00 0.00 0.00 47 1014.2
20260831183557 85 256 1.0 4.0 0.00 0.00 0.00 45 1014.2
20260831183112 85 320 1.0 4.0 0.00 0.00 0.00 46 1014.2
20260831182601 85 264 1.0 4.0 0.00 0.00 0.00 48 1014.2
20260831182057 84 292 1.0 4.0 0.00 0.00 0.00 49 1014.3
20260831181606 84 261 0.0 3.0 0.00 0.00 0.00 51 1014.3
20260831181058 84 0 0.0 4.0 0.00 0.00 0.00 49 1014.2
20260831180558 84 326 1.0 4.0 0.00 0.00 0.00 49 1014.2
20260831180105 84 13 0.0 4.0 0.00 0.00 0.00 51 1014.2
20260831175600 84 296 0.0 4.0 0.00 0.00 0.00 50 1014.3
20260831175058 83 352 1.0 4.0 0.00 0.00 0.00 49 1014.2
20260831174633 83 336 2.0 5.0 0.00 0.00 0.00 52 1014.3
20260831174057 82 284 1.0 5.0 0.00 0.00 0.00 55 1014.3
20260831173558 82 355 1.0 9.0 0.00 0.00 0.00 56 1014.3
20260831173102 82 288 2.0 9.0 0.00 0.00 0.00 57 1014.4
20260831172558 82 12 2.0 6.0 0.00 0.00 0.00 56 1014.3
20260831172057 81 10 0.0 9.0 0.00 0.00 0.00 58 1014.3
20260831171604 81 259 2.0 9.0 0.00 0.00 0.00 57 1014.3
20260831171058 81 33 3.0 9.0 0.00 0.00 0.00 50 1014.3
20260831170558 81 355 3.0 8.0 0.00 0.00 0.00 50 1014.4
20260831170120 81 5 0.0 4.0 0.00 0.00 0.00 52 1014.5
20260831165559 81 0 1.0 4.0 0.00 0.00 0.00 53 1014.5
20260831165058 80 23 1.0 4.0 0.00 0.00 0.00 56 1014.5